Puyallup, WA
on Sunday, December 30, 2012

Sunday
Previous Day Next Day
Daily Summary
 ActualAverage (KSEA)Record (KSEA)
Temperature
Mean Temperature °F 41°F  
Max Temperature 42°F 45°F 56°F (1958)
Min Temperature 26°F 36°F 6°F (1968)
Degree Days
Heating Degree Days 31 24  
Month to date heating degree days 733  
Since 1 July heating degree days 1916  
Cooling Degree Days 0 0  
Month to date cooling degree days 0  
Year to date cooling degree days 189  
Moisture
Dew Point 34°F   
Average Humidity 95    
Maximum Humidity 100    
Minimum Humidity 76    
Precipitation
Precipitation 0.00 in 0.16 in 1.06 in (1980)
Month to date precipitation 5.19  
Year to date precipitation 37.33  
Snow
Snow 0.00 in in 3.70 in (1968)
Month to date snowfall  
Since 1 July snowfall  
Snow Depth in   
Wind
Wind Speed 0 mph   
Max Wind Speed 0 mph   
Max Gust Speed mph   
Visibility 6 miles   
Events Fog   

Key: T is trace of precipitation, MM is missing value
Source: NWS Daily Summary
Time(PST)TemperatureDew PointHumidity Pressure Visibility Wind DirectionWind SpeedGust SpeedPrecipitationEvents Conditions
12:15 AM 37.4°F 37.4°F 100% 30.23 in 5.0 miles North - - N/A   Overcast
12:35 AM 37.4°F 37.4°F 100% 30.22 in 5.0 miles North - - N/A   Overcast
5:35 AM 35.6°F 35.6°F 100% 30.26 in 3.0 miles Calm Calm - N/A   Mostly Cloudy
5:55 AM 35.6°F 35.6°F 100% 30.26 in 3.0 miles Calm Calm - N/A   Mostly Cloudy
6:15 AM 35.6°F 35.6°F 100% 30.26 in 4.0 miles Calm Calm - N/A   Overcast
6:35 AM 35.6°F 35.6°F 100% 30.26 in 4.0 miles Calm Calm - N/A   Overcast
6:55 AM 35.6°F 35.6°F 100% 30.27 in 3.0 miles Calm Calm - N/A   Overcast
7:15 AM 35.6°F 35.6°F 100% 30.27 in 2.0 miles Calm Calm - N/A   Overcast
7:35 AM 35.6°F 35.6°F 100% 30.27 in 2.0 miles Calm Calm - N/A   Overcast
7:55 AM 35.6°F 35.6°F 100% 30.27 in 2.0 miles Calm Calm - N/A   Overcast
8:15 AM 35.6°F 35.6°F 100% 30.27 in 4.0 miles Calm Calm - N/A   Overcast
8:35 AM 35.6°F 35.6°F 100% 30.28 in 3.0 miles Calm Calm - N/A   Overcast
8:55 AM 37.4°F 37.4°F 100% 30.28 in 3.0 miles Calm Calm - N/A   Overcast
9:15 AM 37.4°F 37.4°F 100% 30.29 in 5.0 miles Calm Calm - N/A   Overcast
9:35 AM 37.4°F 37.4°F 100% 30.30 in 8.0 miles Calm Calm - N/A   Overcast
9:55 AM 37.4°F 37.4°F 100% 30.30 in 10.0 miles Calm Calm - N/A   Overcast
10:15 AM 39.2°F 37.4°F 93% 30.30 in 10.0 miles Calm Calm - N/A   Mostly Cloudy
10:35 AM 41.0°F 37.4°F 87% 30.31 in 10.0 miles Calm Calm - N/A   Mostly Cloudy
10:55 AM 41.0°F 37.4°F 87% 30.30 in 10.0 miles Calm Calm - N/A   Mostly Cloudy
11:15 AM 39.2°F 37.4°F 93% 30.30 in 10.0 miles Calm Calm - N/A   Scattered Clouds
11:35 AM 39.2°F 35.6°F 87% 30.30 in 10.0 miles Calm Calm - N/A   Clear
11:55 AM 41.0°F 35.6°F 81% 30.29 in 10.0 miles Calm Calm - N/A   Mostly Cloudy
12:15 PM 39.2°F 33.8°F 81% 30.29 in 10.0 miles Calm Calm - N/A   Mostly Cloudy
12:35 PM 41.0°F 35.6°F 81% 30.29 in 10.0 miles Calm Calm - N/A   Mostly Cloudy
12:55 PM 41.0°F 35.6°F 81% 30.28 in 10.0 miles Calm Calm - N/A   Mostly Cloudy
1:15 PM 42.8°F 35.6°F 76% 30.28 in 10.0 miles Calm Calm - N/A   Mostly Cloudy
1:35 PM 41.0°F 35.6°F 81% 30.28 in 10.0 miles Calm Calm - N/A   Mostly Cloudy
1:55 PM 41.0°F 35.6°F 81% 30.28 in 10.0 miles Calm Calm - N/A   Mostly Cloudy
2:15 PM 41.0°F 35.6°F 81% 30.28 in 10.0 miles Calm Calm - N/A   Overcast
2:35 PM 41.0°F 35.6°F 81% 30.28 in 10.0 miles Calm Calm - N/A   Overcast
2:55 PM 39.2°F 35.6°F 87% 30.28 in 10.0 miles Calm Calm - N/A   Overcast
3:15 PM 39.2°F 35.6°F 87% 30.28 in 10.0 miles Calm Calm - N/A   Overcast
3:35 PM 39.2°F 35.6°F 87% 30.29 in 10.0 miles Calm Calm - N/A   Overcast
3:55 PM 39.2°F 35.6°F 87% 30.28 in 10.0 miles Calm Calm - N/A   Overcast
4:15 PM 39.2°F 35.6°F 87% 30.27 in 10.0 miles Calm Calm - N/A   Overcast
4:35 PM 39.2°F 35.6°F 87% 30.27 in 10.0 miles Calm Calm - N/A   Mostly Cloudy
4:55 PM 35.6°F 35.6°F 100% 30.27 in 10.0 miles Calm Calm - N/A   Partly Cloudy
5:15 PM 35.6°F 35.6°F 100% 30.27 in 10.0 miles Calm Calm - N/A   Clear
5:35 PM 32.0°F 32.0°F 100% 30.27 in 4.0 miles Calm Calm - N/A   Clear
5:55 PM 32.0°F 32.0°F 100% 30.27 in 3.0 miles Calm Calm - N/A   Clear
6:15 PM 32.0°F 32.0°F 100% 30.26 in 3.0 miles Calm Calm - N/A   Clear
6:35 PM 32.0°F 32.0°F 100% 30.26 in 3.0 miles Calm Calm - N/A   Clear
6:55 PM 32.0°F 32.0°F 100% 30.26 in 1.5 miles Calm Calm - N/A   Clear
7:15 PM 32.0°F 32.0°F 100% 30.25 in 2.0 miles Calm Calm - N/A   Clear
7:55 PM 28.4°F 28.4°F 100% 30.26 in 0.2 miles Calm Calm - N/A Fog Light Freezing Fog
8:15 PM 30.2°F 30.2°F 100% 30.26 in 2.0 miles Calm Calm - N/A   Clear
8:35 PM 28.4°F 28.4°F 100% 30.26 in 1.5 miles Calm Calm - N/A   Clear
8:55 PM 28.4°F 28.4°F 100% 30.27 in 0.5 miles Calm Calm - N/A Fog Light Freezing Fog
9:15 PM 30.2°F 30.2°F 100% 30.27 in 0.8 miles Calm Calm - N/A   Mist
9:35 PM 28.4°F 28.4°F 100% 30.27 in 3.0 miles Calm Calm - N/A   Clear
9:55 PM 26.6°F 26.6°F 100% 30.27 in 4.0 miles Calm Calm - N/A   Clear
10:15 PM 28.4°F 28.4°F 100% 30.28 in 4.0 miles Calm Calm - N/A   Clear
10:35 PM 28.4°F 28.4°F 100% 30.28 in 4.0 miles Calm Calm - N/A   Clear
10:55 PM 26.6°F 26.6°F 100% 30.29 in 4.0 miles Calm Calm - N/A   Clear
11:15 PM 28.4°F 28.4°F 100% 30.28 in 4.0 miles Calm Calm - N/A   Clear
11:35 PM 26.6°F 26.6°F 100% 30.28 in 5.0 miles Calm Calm - N/A   Clear
11:55 PM 28.4°F 28.4°F 100% 30.28 in 7.0 miles Calm Calm - N/A   Clear
Moon Phase
Dec. 30 Jan. 04 Jan. 11 Jan. 18 Jan. 26
Sunrise:07:55 AM (PST) Moon Rise:07:16 PM (PST)12/30
Sunset:04:28 PM (PST) Moon Set:08:57 AM (PST)12/30

Copyright © 2014 The Weather Underground, Inc.